Zurück zum Katalog

STARLINK-36271

AktivKommunikationVLEO
NORAD 68703·PAYLOAD·🇺🇸 United States

Gestartet Apr 14, 2026 von Cape Canaveral Space Force Station

Loading…

Nächste Überflüge (nächste 24 Stunden)

TLE

AktuellSource: CelesTrak SupGP

Epoche: Sep 14, 2026, 23:18 UTC

1 68703C 26081E   26257.97131944  .00012668  00000+0  37438-3 0  2578
2 68703  53.1576 231.8149 0001318  89.9289   1.2370 15.34374811    10

Verfolge STARLINK-36271 in Echtzeit mit AllMySat

Download on the App Store